Date String (YYYY-MM-DD hh:mm:ss) UTC,Instrument flags,Ambient pressure (hPa),Sample flow (lpm),Bypass flow (lpm),Sample temperature (°C),Ambient temperature (°C),ASC tube jacket temperature (°C),LED temperature (°C),Box temperature (°C),Sample RH (%),Span deviation,Mass concentration (μg/m³),Mass concentration (μg/m³),Mass concentration (μg/m³)
DateTimeUTC,F1_M11,P_M11,Q1_M11,Q2_M11,T1_M11,T2_M11,T3_M11,T4_M11,T5_M11,U1_M11,ZSPAN_M11,X0_M11,X2_M11,X1_M11
2021-10-20 12:00:00,,0829.9,5.00,0.00,22.9,22.2,00.0,32.1,24.7,20.0,0000.0,0007.94,0003.16,0002.85
2021-10-20 12:01:00,,0829.9,4.98,0.00,22.9,22.2,00.0,32.1,24.7,20.0,0000.0,0007.51,0003.17,0002.89
2021-10-20 12:02:00,,0829.9,5.01,0.00,22.9,22.2,00.0,32.1,24.7,20.0,0000.0,0006.83,0003.16,0002.88
2021-10-20 12:03:00,,0829.9,5.00,0.00,22.9,22.1,00.0,32.1,24.6,20.0,0000.0,0006.26,0003.19,0002.92
2021-10-20 12:04:00,,0829.9,5.00,0.00,22.9,22.1,00.0,32.0,24.6,20.0,0000.0,0005.82,0003.22,0002.96
2021-10-20 12:05:00,,0829.9,4.99,0.00,22.9,22.1,00.0,32.0,24.7,20.0,0000.0,0006.48,0003.23,0002.99
2021-10-20 12:06:00,,0829.9,5.00,0.00,22.9,22.1,00.0,32.0,24.7,20.0,0000.0,0006.63,0003.25,0003.02
2021-10-20 12:07:00,,0829.9,5.00,0.00,22.8,22.1,00.0,32.0,24.6,20.0,0000.0,0006.05,0003.29,0003.06
2021-10-20 12:08:00,,0830.0,4.99,0.00,22.8,22.1,00.0,32.0,24.6,20.0,0000.0,0005.51,0003.33,0003.11
2021-10-20 12:09:00,,0830.0,5.01,0.00,22.8,22.1,00.0,32.0,24.6,19.9,0000.0,0005.40,0003.35,0003.14
2021-10-20 12:10:00,,0830.0,5.00,0.00,22.9,22.1,00.0,32.0,24.7,19.9,0000.0,0005.36,0003.36,0003.17
2021-10-20 12:11:00,,0830.0,4.99,0.00,22.9,22.2,00.0,32.0,24.7,19.8,0000.0,0005.36,0003.39,0003.21
2021-10-20 12:12:00,,0830.0,5.01,0.00,22.9,22.2,00.0,32.0,24.7,19.8,0000.0,0005.48,0003.44,0003.26
2021-10-20 12:13:00,,0830.0,5.00,0.00,22.9,22.2,00.0,32.0,24.8,19.8,0000.0,0005.82,0003.55,0003.33
2021-10-20 12:14:00,,0829.9,5.00,0.00,22.9,22.2,00.0,32.0,24.8,19.7,0000.0,0005.56,0003.58,0003.39
2021-10-20 12:15:00,,0829.9,5.00,0.00,23.0,22.2,00.0,32.0,24.8,19.6,0000.0,0005.50,0003.63,0003.44
2021-10-20 12:16:00,,0829.9,4.99,0.00,23.0,22.3,00.0,32.0,24.8,19.5,0000.0,0005.95,0003.68,0003.49
2021-10-20 12:17:00,,0829.9,5.01,0.00,23.0,22.3,00.0,32.0,24.9,19.4,0000.0,0007.12,0003.75,0003.55
2021-10-20 12:18:00,,0829.9,4.99,0.00,23.0,22.3,00.0,32.0,24.9,19.4,0000.0,0007.34,0003.81,0003.60
2021-10-20 12:19:00,,0829.9,5.01,0.00,23.0,22.3,00.0,32.1,24.9,19.4,0000.0,0007.36,0003.86,0003.66
2021-10-20 12:20:00,,0829.9,5.00,0.00,23.0,22.3,00.0,32.1,24.9,19.4,0000.0,0007.44,0003.93,0003.72
2021-10-20 12:21:00,,0829.9,5.01,0.00,23.0,22.3,00.0,32.1,24.9,19.4,0000.0,0007.55,0004.01,0003.78
2021-10-20 12:22:00,,0829.9,4.99,0.00,23.0,22.3,00.0,32.1,24.9,19.4,0000.0,0007.85,0004.11,0003.86
2021-10-20 12:23:00,,0829.9,5.00,0.00,23.0,22.3,00.0,32.1,24.9,19.4,0000.0,0008.09,0004.19,0003.93
2021-10-20 12:24:00,,0829.8,4.99,0.00,23.0,22.2,00.0,32.1,24.8,19.4,0000.0,0008.06,0004.22,0003.98
2021-10-20 12:25:00,,0829.9,5.00,0.00,23.0,22.2,00.0,32.1,24.8,19.5,0000.0,0008.14,0004.30,0004.05
2021-10-20 12:26:00,,0829.9,5.00,0.00,23.0,22.2,00.0,32.1,24.8,19.5,0000.0,0008.28,0004.38,0004.12
2021-10-20 12:27:00,,0829.8,4.99,0.00,23.0,22.2,00.0,32.1,24.8,19.5,0000.0,0008.03,0004.46,0004.19
2021-10-20 12:28:00,,0829.9,4.99,0.00,23.0,22.2,00.0,32.1,24.8,19.6,0000.0,0007.28,0004.52,0004.27
2021-10-20 12:29:00,,0829.9,5.01,0.00,23.0,22.2,00.0,32.1,24.8,19.6,0000.0,0007.17,0004.58,0004.35
2021-10-20 12:30:00,,0829.9,4.99,0.00,22.9,22.2,00.0,32.1,24.8,19.6,0000.0,0007.26,0004.65,0004.42
2021-10-20 12:31:00,,0830.0,5.01,0.00,22.9,22.2,00.0,32.1,24.7,19.6,0000.0,0007.37,0004.73,0004.50
2021-10-20 12:32:00,,0830.0,4.99,0.00,22.9,22.2,00.0,32.1,24.7,19.6,0000.0,0007.39,0004.78,0004.57
2021-10-20 12:33:00,,0830.0,5.01,0.00,22.9,22.2,00.0,32.0,24.7,19.6,0000.0,0007.27,0004.83,0004.63
2021-10-20 12:34:00,,0830.1,5.00,0.00,22.9,22.2,00.0,32.0,24.7,19.6,0000.0,0007.03,0004.88,0004.69
2021-10-20 12:35:00,,0830.2,5.00,0.00,22.9,22.2,00.0,32.0,24.8,19.5,0000.0,0007.20,0004.95,0004.74
2021-10-20 12:36:00,,0830.1,5.00,0.00,23.0,22.2,00.0,32.0,24.8,19.5,0000.0,0007.39,0005.01,0004.78
2021-10-20 12:37:00,,0830.0,4.99,0.00,23.0,22.2,00.0,32.0,24.8,19.5,0000.0,0007.43,0005.07,0004.84
2021-10-20 12:38:00,,0830.1,5.01,0.00,23.0,22.3,00.0,32.1,24.9,19.4,0000.0,0007.51,0005.13,0004.90
2021-10-20 12:39:00,,0830.1,4.99,0.00,23.0,22.3,00.0,32.1,24.9,19.4,0000.0,0007.64,0005.20,0004.94
2021-10-20 12:40:00,,0830.1,5.00,0.00,23.0,22.3,00.0,32.1,24.9,19.4,0000.0,0007.72,0005.24,0004.97
2021-10-20 12:41:00,,0830.1,5.00,0.00,23.0,22.2,00.0,32.1,24.9,19.5,0000.0,0007.78,0005.27,0005.01
2021-10-20 12:42:00,,0830.0,5.00,0.00,23.0,22.2,00.0,32.1,24.8,19.5,0000.0,0007.84,0005.33,0005.07
2021-10-20 12:43:00,,0830.1,4.98,0.00,23.0,22.2,00.0,32.1,24.8,19.5,0000.0,0007.88,0005.36,0005.09
2021-10-20 12:44:00,,0830.1,5.01,0.00,23.0,22.2,00.0,32.1,24.8,19.5,0000.0,0007.97,0005.42,0005.14
2021-10-20 12:45:00,,0830.1,5.00,0.00,23.0,22.2,00.0,32.1,24.8,19.5,0000.0,0007.98,0005.46,0005.19
2021-10-20 12:46:00,,0830.1,4.99,0.00,23.0,22.2,00.0,32.1,24.8,19.5,0000.0,0008.01,0005.50,0005.24
2021-10-20 12:47:00,,0830.1,5.00,0.00,23.0,22.2,00.0,32.1,24.8,19.6,0000.0,0008.03,0005.56,0005.31
2021-10-20 12:48:00,,0830.1,5.00,0.00,22.9,22.2,00.0,32.1,24.8,19.6,-000.2,0008.13,0005.62,0005.37
2021-10-20 12:49:00,,0830.1,5.01,0.00,22.9,22.2,00.0,32.1,24.7,19.6,-000.3,0008.18,0005.66,0005.41
2021-10-20 12:50:00,,0830.0,4.99,0.00,22.9,22.2,00.0,32.0,24.7,19.6,0000.0,0008.18,0005.71,0005.48
2021-10-20 12:51:00,,0830.1,5.00,0.00,22.9,22.1,00.0,32.0,24.7,19.7,0000.0,0008.25,0005.79,0005.58
2021-10-20 12:52:00,,0830.1,5.01,0.00,22.9,22.1,00.0,32.0,24.7,19.7,0000.0,0008.36,0005.89,0005.67
2021-10-20 12:53:00,,0830.1,5.00,0.00,22.9,22.1,00.0,32.0,24.7,19.7,0000.0,0008.75,0005.96,0005.73
2021-10-20 12:54:00,,0830.1,4.98,0.00,22.9,22.1,00.0,32.0,24.7,19.7,-000.5,0009.67,0006.07,0005.81
2021-10-20 12:55:00,,0830.1,5.01,0.00,22.9,22.1,00.0,32.0,24.7,19.7,-000.1,0009.75,0006.16,0005.89
2021-10-20 12:56:00,,0830.1,5.00,0.00,22.9,22.1,00.0,32.0,24.8,19.6,-000.1,0009.90,0006.25,0005.97
2021-10-20 12:57:00,,0830.1,5.01,0.00,22.9,22.1,00.0,32.0,24.8,19.6,-000.3,0010.06,0006.37,0006.06
2021-10-20 12:58:00,,0830.1,5.01,0.00,23.0,22.2,00.0,32.0,24.8,19.6,-000.3,0010.10,0006.47,0006.17
2021-10-20 12:59:00,,0830.1,4.99,0.00,22.9,22.1,00.0,32.0,24.8,19.6,0000.0,0010.21,0006.60,0006.29
